TimeMST,TemperatureF,Dew PointF,Humidity,Sea Level PressureIn,VisibilityMPH,Wind Direction,Wind SpeedMPH,Gust SpeedMPH,PrecipitationIn,Events,Conditions,WindDirDegrees,DateUTC
12:00 AM,28.4,26.6,93,29.76,1.0,North,5.8,-,0.00,Snow,Light Snow,360,2012-12-16 07:00:00
12:15 AM,28.4,26.6,93,29.76,0.8,North,6.9,-,0.00,Snow,Light Snow,350,2012-12-16 07:15:00
12:24 AM,28.4,26.6,93,29.76,0.8,North,6.9,-,0.00,Snow,Light Snow,360,2012-12-16 07:24:00
12:53 AM,28.0,26.1,92,29.80,0.5,North,8.1,-,0.00,Fog-Snow,Snow,10,2012-12-16 07:53:00
1:30 AM,28.4,26.6,93,29.75,0.8,NNE,6.9,-,0.00,Snow,Light Snow,20,2012-12-16 08:30:00
1:37 AM,28.4,26.6,93,29.74,1.8,NNE,6.9,-,0.00,Snow,Light Snow,20,2012-12-16 08:37:00
1:40 AM,28.4,26.6,93,29.74,3.0,NNE,8.1,-,0.00,Snow,Light Snow,30,2012-12-16 08:40:00
1:53 AM,28.0,26.1,92,29.78,2.0,NE,6.9,-,0.00,Snow,Light Snow,40,2012-12-16 08:53:00
2:03 AM,28.4,26.6,93,29.74,6.0,NNE,4.6,-,0.00,,Overcast,20,2012-12-16 09:03:00
2:23 AM,28.4,26.6,93,29.74,2.5,NNE,3.5,-,N/A,Snow,Light Snow,20,2012-12-16 09:23:00
2:40 AM,28.4,26.6,93,29.73,3.0,NNE,5.8,-,0.00,Snow,Light Snow,30,2012-12-16 09:40:00
2:53 AM,28.0,26.1,92,29.78,6.0,NNE,6.9,-,0.00,Snow,Light Snow,30,2012-12-16 09:53:00
3:10 AM,28.4,26.6,93,29.75,10.0,West,6.9,-,0.00,,Overcast,260,2012-12-16 10:10:00
3:20 AM,28.4,26.6,93,29.75,10.0,WNW,3.5,-,0.00,,Overcast,290,2012-12-16 10:20:00
3:31 AM,28.4,26.6,93,29.74,1.8,WNW,3.5,-,0.00,Snow,Light Snow,290,2012-12-16 10:31:00
3:44 AM,28.4,26.6,93,29.74,1.0,Calm,Calm,-,0.00,Snow,Light Snow,0,2012-12-16 10:44:00
3:53 AM,28.0,27.0,96,29.79,1.5,Calm,Calm,-,0.00,Snow,Light Snow,0,2012-12-16 10:53:00
4:00 AM,28.4,26.6,93,29.74,3.0,Calm,Calm,-,0.00,Snow,Light Snow,0,2012-12-16 11:00:00
4:07 AM,28.4,26.6,93,29.74,5.0,West,3.5,-,N/A,Snow,Light Snow,260,2012-12-16 11:07:00
4:15 AM,28.4,26.6,93,29.74,3.0,Calm,Calm,-,0.00,Snow,Light Snow,0,2012-12-16 11:15:00
4:23 AM,28.4,26.6,93,29.74,2.0,WSW,4.6,-,0.00,Snow,Light Snow,240,2012-12-16 11:23:00
4:28 AM,28.4,26.6,93,29.74,3.0,West,3.5,-,0.00,Snow,Light Snow,260,2012-12-16 11:28:00
4:34 AM,28.4,26.6,93,29.74,1.8,WSW,3.5,-,0.00,Snow,Light Snow,240,2012-12-16 11:34:00
4:43 AM,28.4,26.6,93,29.74,3.0,Calm,Calm,-,0.00,Snow,Light Snow,0,2012-12-16 11:43:00
4:53 AM,28.0,27.0,96,29.81,3.0,NW,4.6,-,0.00,Snow,Light Snow,320,2012-12-16 11:53:00
5:06 AM,28.4,26.6,93,29.73,2.5,NW,3.5,-,0.00,Snow,Light Snow,320,2012-12-16 12:06:00
5:14 AM,28.4,26.6,93,29.73,5.0,Calm,Calm,-,0.00,Snow,Light Snow,0,2012-12-16 12:14:00
5:21 AM,28.4,26.6,93,29.73,6.0,Calm,Calm,-,0.00,Snow,Light Snow,0,2012-12-16 12:21:00
5:28 AM,28.4,26.6,93,29.72,6.0,Calm,Calm,-,0.00,Snow,Light Snow,0,2012-12-16 12:28:00
5:53 AM,25.0,24.1,96,29.80,6.0,Calm,Calm,-,0.00,,Scattered Clouds,0,2012-12-16 12:53:00
5:59 AM,24.8,24.8,100,29.71,1.5,Calm,Calm,-,N/A,,Partly Cloudy,0,2012-12-16 12:59:00
6:03 AM,23.0,21.2,93,29.72,0.5,Calm,Calm,-,N/A,Fog,Light Freezing Fog,0,2012-12-16 13:03:00
6:07 AM,21.2,21.2,100,29.72,0.2,West,4.6,-,N/A,Fog,Light Freezing Fog,270,2012-12-16 13:07:00
6:16 AM,21.2,19.4,93,29.73,0.2,NW,4.6,-,N/A,Fog,Light Freezing Fog,310,2012-12-16 13:16:00
6:19 AM,19.4,19.4,100,29.73,0.5,NW,6.9,-,N/A,Fog,Light Freezing Fog,310,2012-12-16 13:19:00
6:26 AM,24.8,24.8,100,29.74,2.5,NW,8.1,-,N/A,,Mostly Cloudy,320,2012-12-16 13:26:00
6:33 AM,26.6,24.8,93,29.74,8.0,WNW,5.8,-,N/A,,Overcast,300,2012-12-16 13:33:00
6:53 AM,25.0,23.0,92,29.81,9.0,NW,3.5,-,N/A,,Overcast,310,2012-12-16 13:53:00
7:18 AM,23.0,21.2,93,29.74,1.8,NNW,3.5,-,N/A,,Overcast,340,2012-12-16 14:18:00
7:26 AM,24.8,21.2,86,29.74,3.0,North,5.8,-,N/A,,Overcast,350,2012-12-16 14:26:00
7:53 AM,25.0,24.1,96,29.83,10.0,NNW,4.6,-,N/A,,Overcast,330,2012-12-16 14:53:00
8:22 AM,26.6,26.6,100,29.74,10.0,Calm,Calm,-,N/A,,Overcast,0,2012-12-16 15:22:00
8:53 AM,28.9,27.0,92,29.81,10.0,Calm,Calm,-,N/A,,Overcast,0,2012-12-16 15:53:00
9:12 AM,28.4,26.6,93,29.74,10.0,Calm,Calm,-,N/A,,Overcast,0,2012-12-16 16:12:00
9:53 AM,30.0,28.0,92,29.82,10.0,Calm,Calm,-,0.04,,Overcast,0,2012-12-16 16:53:00
10:36 AM,30.2,28.4,93,29.75,10.0,SW,3.5,-,0.05,,Overcast,220,2012-12-16 17:36:00
10:53 AM,30.0,28.0,92,29.82,10.0,SW,3.5,-,0.07,,Overcast,220,2012-12-16 17:53:00
11:33 AM,32.0,28.4,87,29.73,10.0,SSW,4.6,-,0.06,,Overcast,200,2012-12-16 18:33:00
11:53 AM,32.0,28.0,85,29.80,10.0,SW,4.6,-,0.10,,Overcast,220,2012-12-16 18:53:00
12:49 PM,35.6,30.2,81,29.70,10.0,SSW,5.8,-,0.08,,Partly Cloudy,210,2012-12-16 19:49:00
12:53 PM,35.1,30.0,82,29.77,10.0,SSW,5.8,-,0.09,,Partly Cloudy,210,2012-12-16 19:53:00
1:53 PM,36.0,30.9,82,29.76,10.0,SW,3.5,-,N/A,,Clear,230,2012-12-16 20:53:00
2:53 PM,36.0,30.9,82,29.77,10.0,WSW,3.5,-,N/A,,Clear,250,2012-12-16 21:53:00
3:53 PM,34.0,30.0,85,29.78,9.0,West,3.5,-,N/A,,Clear,260,2012-12-16 22:53:00
4:53 PM,32.0,30.0,92,29.80,9.0,SW,6.9,-,N/A,,Mostly Cloudy,230,2012-12-16 23:53:00
5:53 PM,33.1,30.0,89,29.83,10.0,WNW,6.9,-,N/A,,Mostly Cloudy,290,2012-12-17 00:53:00
6:53 PM,32.0,28.9,88,29.85,8.0,West,8.1,-,N/A,,Mostly Cloudy,260,2012-12-17 01:53:00
7:53 PM,28.9,27.0,92,29.86,6.0,West,9.2,-,N/A,,Scattered Clouds,260,2012-12-17 02:53:00
8:53 PM,28.0,24.1,85,29.84,10.0,West,8.1,-,N/A,,Clear,260,2012-12-17 03:53:00
9:53 PM,28.0,21.0,75,29.83,10.0,West,12.7,-,N/A,,Clear,270,2012-12-17 04:53:00
10:53 PM,28.0,18.0,66,29.85,10.0,West,15.0,-,N/A,,Clear,280,2012-12-17 05:53:00
11:53 PM,28.9,17.1,61,29.83,10.0,NW,15.0,-,N/A,,Clear,310,2012-12-17 06:53:00